Year,Month,Day,Hour,Minute,Value (Times are PST for temperature in C)
2008,06,29,00,00,18.80
2008,06,29,00,01,18.80
2008,06,29,00,02,18.80
2008,06,29,00,03,18.70
2008,06,29,00,04,18.70
2008,06,29,00,05,18.70
2008,06,29,00,06,18.70
2008,06,29,00,07,18.60
2008,06,29,00,08,18.60
2008,06,29,00,09,18.60
2008,06,29,00,10,18.50
2008,06,29,00,11,18.50
2008,06,29,00,12,18.50
2008,06,29,00,13,18.50
2008,06,29,00,14,18.40
2008,06,29,00,15,18.40
2008,06,29,00,16,18.40
2008,06,29,00,17,18.40
2008,06,29,00,18,18.30
2008,06,29,00,19,18.30
2008,06,29,00,20,18.30
2008,06,29,00,21,18.30
2008,06,29,00,22,18.30
2008,06,29,00,23,18.30
2008,06,29,00,24,18.30
2008,06,29,00,25,18.30
2008,06,29,00,26,18.30
2008,06,29,00,27,18.30
2008,06,29,00,28,18.30
2008,06,29,00,29,18.30
2008,06,29,00,30,18.30
2008,06,29,00,31,18.30
2008,06,29,00,32,18.20
2008,06,29,00,33,18.20
2008,06,29,00,34,18.20
2008,06,29,00,35,18.10
2008,06,29,00,36,18.10
2008,06,29,00,37,18.00
2008,06,29,00,38,18.00
2008,06,29,00,39,18.00
2008,06,29,00,40,17.90
2008,06,29,00,41,17.90
2008,06,29,00,42,17.90
2008,06,29,00,43,17.90
2008,06,29,00,44,17.90
2008,06,29,00,45,17.90
2008,06,29,00,46,17.90
2008,06,29,00,47,17.90
2008,06,29,00,48,17.90
2008,06,29,00,49,17.90
2008,06,29,00,50,17.90
2008,06,29,00,51,18.00
2008,06,29,00,52,18.00
2008,06,29,00,53,18.10
2008,06,29,00,54,18.10
2008,06,29,00,55,18.10
2008,06,29,00,56,18.10
2008,06,29,00,57,18.20
2008,06,29,00,58,18.20
2008,06,29,00,59,18.20
2008,06,29,01,00,18.30
2008,06,29,01,01,18.30
2008,06,29,01,02,18.30
2008,06,29,01,03,18.30
2008,06,29,01,04,18.40
2008,06,29,01,05,18.40
2008,06,29,01,06,18.40
2008,06,29,01,07,18.40
2008,06,29,01,08,18.50
2008,06,29,01,09,18.50
2008,06,29,01,10,18.50
2008,06,29,01,11,18.60
2008,06,29,01,12,18.60
2008,06,29,01,13,18.60
2008,06,29,01,14,18.70
2008,06,29,01,15,18.70
2008,06,29,01,16,18.70
2008,06,29,01,17,18.70
2008,06,29,01,18,18.80
2008,06,29,01,19,18.80
2008,06,29,01,20,18.80
2008,06,29,01,21,18.90
2008,06,29,01,22,18.90
2008,06,29,01,23,18.90
2008,06,29,01,24,19.00
2008,06,29,01,25,19.00
2008,06,29,01,26,19.00
2008,06,29,01,27,19.10
2008,06,29,01,28,19.10
2008,06,29,01,29,19.10
2008,06,29,01,30,19.10
2008,06,29,01,31,19.20
2008,06,29,01,32,19.20
2008,06,29,01,33,19.20
2008,06,29,01,34,19.20
2008,06,29,01,35,19.20
2008,06,29,01,36,19.20
2008,06,29,01,37,19.10
2008,06,29,01,38,19.10
2008,06,29,01,39,19.10
2008,06,29,01,40,19.00
2008,06,29,01,41,19.00
2008,06,29,01,42,19.00
2008,06,29,01,43,18.90
2008,06,29,01,44,18.90
2008,06,29,01,45,18.90
2008,06,29,01,46,18.90
2008,06,29,01,47,18.90
2008,06,29,01,48,18.90
2008,06,29,01,49,19.00
2008,06,29,01,50,19.00
2008,06,29,01,51,19.00
2008,06,29,01,52,19.00
2008,06,29,01,53,19.00
2008,06,29,01,54,18.90
2008,06,29,01,55,18.90
2008,06,29,01,56,18.90
2008,06,29,01,57,18.90
2008,06,29,01,58,18.90
2008,06,29,01,59,18.90
2008,06,29,02,00,18.90
2008,06,29,02,01,18.90
2008,06,29,02,02,18.90
2008,06,29,02,03,18.90
2008,06,29,02,04,18.90
2008,06,29,02,05,18.90
2008,06,29,02,06,18.90
2008,06,29,02,07,18.90
2008,06,29,02,08,18.90
2008,06,29,02,09,18.80
2008,06,29,02,10,18.80
2008,06,29,02,11,18.80
2008,06,29,02,12,18.80
2008,06,29,02,13,18.70
2008,06,29,02,14,18.70
2008,06,29,02,15,18.60
2008,06,29,02,16,18.60
2008,06,29,02,17,18.50
2008,06,29,02,18,18.50
2008,06,29,02,19,18.50
2008,06,29,02,20,18.50
2008,06,29,02,21,18.40
2008,06,29,02,22,18.50
2008,06,29,02,23,18.50
2008,06,29,02,24,18.50
2008,06,29,02,25,18.50
2008,06,29,02,26,18.50
2008,06,29,02,27,18.60
2008,06,29,02,28,18.60
2008,06,29,02,29,18.60
2008,06,29,02,30,18.60
2008,06,29,02,31,18.60
2008,06,29,02,32,18.60
2008,06,29,02,33,18.60
2008,06,29,02,34,18.50
2008,06,29,02,35,18.50
2008,06,29,02,36,18.50
2008,06,29,02,37,18.50
2008,06,29,02,38,18.40
2008,06,29,02,39,18.40
2008,06,29,02,40,18.40
2008,06,29,02,41,18.40
2008,06,29,02,42,18.40
2008,06,29,02,43,18.40
2008,06,29,02,44,18.30
2008,06,29,02,45,18.30
2008,06,29,02,46,18.30
2008,06,29,02,47,18.30
2008,06,29,02,48,18.20
2008,06,29,02,49,18.20
2008,06,29,02,50,18.20
2008,06,29,02,51,18.20
2008,06,29,02,52,18.20
2008,06,29,02,53,18.20
2008,06,29,02,54,18.10
2008,06,29,02,55,18.10
2008,06,29,02,56,18.10
2008,06,29,02,57,18.10
2008,06,29,02,58,18.10
2008,06,29,02,59,18.10
2008,06,29,03,00,18.10
2008,06,29,03,01,18.10
2008,06,29,03,02,18.10
2008,06,29,03,03,18.10
2008,06,29,03,04,18.10
2008,06,29,03,05,18.10
2008,06,29,03,06,18.10
2008,06,29,03,07,18.10
2008,06,29,03,08,18.10
2008,06,29,03,09,18.10
2008,06,29,03,10,18.20
2008,06,29,03,11,18.20
2008,06,29,03,12,18.20
2008,06,29,03,13,18.20
2008,06,29,03,14,18.20
2008,06,29,03,15,18.20
2008,06,29,03,16,18.20
2008,06,29,03,17,18.20
2008,06,29,03,18,18.20
2008,06,29,03,19,18.30
2008,06,29,03,20,18.30
2008,06,29,03,21,18.30
2008,06,29,03,22,18.30
2008,06,29,03,23,18.30
2008,06,29,03,24,18.30
2008,06,29,03,25,18.30
2008,06,29,03,26,18.30
2008,06,29,03,27,18.30
2008,06,29,03,28,18.20
2008,06,29,03,29,18.20
2008,06,29,03,30,18.20
2008,06,29,03,31,18.20
2008,06,29,03,32,18.20
2008,06,29,03,33,18.10
2008,06,29,03,34,18.10
2008,06,29,03,35,18.10
2008,06,29,03,36,18.10
2008,06,29,03,37,18.10
2008,06,29,03,38,18.00
2008,06,29,03,39,18.00
2008,06,29,03,40,18.00
2008,06,29,03,41,18.00
2008,06,29,03,42,17.90
2008,06,29,03,43,17.90
2008,06,29,03,44,17.90
2008,06,29,03,45,17.90
2008,06,29,03,46,17.90
2008,06,29,03,47,17.80
2008,06,29,03,48,17.80
2008,06,29,03,49,17.80
2008,06,29,03,50,17.80
2008,06,29,03,51,17.80
2008,06,29,03,52,17.80
2008,06,29,03,53,17.80
2008,06,29,03,54,17.80
2008,06,29,03,55,17.80
2008,06,29,03,56,17.80
2008,06,29,03,57,17.80
2008,06,29,03,58,17.80
2008,06,29,03,59,17.80
2008,06,29,04,00,17.80
2008,06,29,04,01,17.80
2008,06,29,04,02,17.80
2008,06,29,04,03,17.80
2008,06,29,04,04,17.80
2008,06,29,04,05,17.80
2008,06,29,04,06,17.80
2008,06,29,04,07,17.80
2008,06,29,04,08,17.80
2008,06,29,04,09,17.80
2008,06,29,04,10,17.80
2008,06,29,04,11,17.70
2008,06,29,04,12,17.70
2008,06,29,04,13,17.70
2008,06,29,04,14,17.70
2008,06,29,04,15,17.70
2008,06,29,04,16,17.70
2008,06,29,04,17,17.70
2008,06,29,04,18,17.70
2008,06,29,04,19,17.70
2008,06,29,04,20,17.70
2008,06,29,04,21,17.70
2008,06,29,04,22,17.70
2008,06,29,04,23,17.60
2008,06,29,04,24,17.60
2008,06,29,04,25,17.60
2008,06,29,04,26,17.60
2008,06,29,04,27,17.60
2008,06,29,04,28,17.60
2008,06,29,04,29,17.60
2008,06,29,04,30,17.60
2008,06,29,04,31,17.60
2008,06,29,04,32,17.50
2008,06,29,04,33,17.50
2008,06,29,04,34,17.50
2008,06,29,04,35,17.50
2008,06,29,04,36,17.40
2008,06,29,04,37,17.40
2008,06,29,04,38,17.40
2008,06,29,04,39,17.40
2008,06,29,04,40,17.30
2008,06,29,04,41,17.30
2008,06,29,04,42,17.30
2008,06,29,04,43,17.30
2008,06,29,04,44,17.30
2008,06,29,04,45,17.20
2008,06,29,04,46,17.20
2008,06,29,04,47,17.20
2008,06,29,04,48,17.20
2008,06,29,04,49,17.20
2008,06,29,04,50,17.20
2008,06,29,04,51,17.20
2008,06,29,04,52,17.20
2008,06,29,04,53,17.20
2008,06,29,04,54,17.20
2008,06,29,04,55,17.20
2008,06,29,04,56,17.20
2008,06,29,04,57,17.20
2008,06,29,04,58,17.20
2008,06,29,04,59,17.20
2008,06,29,05,00,17.20
2008,06,29,05,01,17.20
2008,06,29,05,02,17.20
2008,06,29,05,03,17.10
2008,06,29,05,04,17.10
2008,06,29,05,05,17.10
2008,06,29,05,06,17.10
2008,06,29,05,07,17.10
2008,06,29,05,08,17.10
2008,06,29,05,09,17.10
2008,06,29,05,10,17.00
2008,06,29,05,11,17.00
2008,06,29,05,12,17.00
2008,06,29,05,13,17.00
2008,06,29,05,14,17.00
2008,06,29,05,15,17.00
2008,06,29,05,16,16.90
2008,06,29,05,17,16.90
2008,06,29,05,18,16.90
2008,06,29,05,19,16.90
2008,06,29,05,20,16.80
2008,06,29,05,21,16.80
2008,06,29,05,22,16.80
2008,06,29,05,23,16.80
2008,06,29,05,24,16.80
2008,06,29,05,25,16.80
2008,06,29,05,26,16.80
2008,06,29,05,27,16.80
2008,06,29,05,28,16.80
2008,06,29,05,29,16.80
2008,06,29,05,30,16.80
2008,06,29,05,31,16.80
2008,06,29,05,32,16.80
2008,06,29,05,33,16.80
2008,06,29,05,34,16.80
2008,06,29,05,35,16.80
2008,06,29,05,36,16.80
2008,06,29,05,37,16.80
2008,06,29,05,38,16.80
2008,06,29,05,39,16.80
2008,06,29,05,40,16.90
2008,06,29,05,41,16.90
2008,06,29,05,42,16.90
2008,06,29,05,43,16.90
2008,06,29,05,44,16.90
2008,06,29,05,45,16.90
2008,06,29,05,46,17.00
2008,06,29,05,47,17.00
2008,06,29,05,48,17.00
2008,06,29,05,49,17.00
2008,06,29,05,50,17.00
2008,06,29,05,51,17.00
2008,06,29,05,52,17.00
2008,06,29,05,53,17.00
2008,06,29,05,54,17.00
2008,06,29,05,55,17.10
2008,06,29,05,56,17.10
2008,06,29,05,57,17.10
2008,06,29,05,58,17.10
2008,06,29,05,59,17.10
2008,06,29,06,00,17.10
2008,06,29,06,01,17.10
2008,06,29,06,02,17.10
2008,06,29,06,03,17.20
2008,06,29,06,04,17.20
2008,06,29,06,05,17.20
2008,06,29,06,06,17.20
2008,06,29,06,07,17.20
2008,06,29,06,08,17.20
2008,06,29,06,09,17.20
2008,06,29,06,10,17.20
2008,06,29,06,11,17.20
2008,06,29,06,12,17.20
2008,06,29,06,13,17.20
2008,06,29,06,14,17.20
2008,06,29,06,15,17.20
2008,06,29,06,16,17.30
2008,06,29,06,17,17.30
2008,06,29,06,18,17.30
2008,06,29,06,19,17.30
2008,06,29,06,20,17.30
2008,06,29,06,21,17.30
2008,06,29,06,22,17.30
2008,06,29,06,23,17.40
2008,06,29,06,24,17.40
2008,06,29,06,25,17.40
2008,06,29,06,26,17.50
2008,06,29,06,27,17.50
2008,06,29,06,28,17.50
2008,06,29,06,29,17.60
2008,06,29,06,30,17.60
2008,06,29,06,31,17.60
2008,06,29,06,32,17.70
2008,06,29,06,33,17.70
2008,06,29,06,34,17.70
2008,06,29,06,35,17.70
2008,06,29,06,36,17.80
2008,06,29,06,37,17.80
2008,06,29,06,38,17.80
2008,06,29,06,39,17.90
2008,06,29,06,40,17.90
2008,06,29,06,41,18.00
2008,06,29,06,42,18.00
2008,06,29,06,43,18.10
2008,06,29,06,44,18.20
2008,06,29,06,45,18.20
2008,06,29,06,46,18.30
2008,06,29,06,47,18.30
2008,06,29,06,48,18.40
2008,06,29,06,49,18.40
2008,06,29,06,50,18.50
2008,06,29,06,51,18.50
2008,06,29,06,52,18.60
2008,06,29,06,53,18.60
2008,06,29,06,54,18.60
2008,06,29,06,55,18.60
2008,06,29,06,56,18.70
2008,06,29,06,57,18.70
2008,06,29,06,58,18.70
2008,06,29,06,59,18.70
2008,06,29,07,00,18.70
2008,06,29,07,01,18.70
2008,06,29,07,02,18.70
2008,06,29,07,03,18.70
2008,06,29,07,04,18.80
2008,06,29,07,05,18.80
2008,06,29,07,06,18.90
2008,06,29,07,07,18.90
2008,06,29,07,08,18.90
2008,06,29,07,09,19.00
2008,06,29,07,10,19.10
2008,06,29,07,11,19.10
2008,06,29,07,12,19.10
2008,06,29,07,13,19.20
2008,06,29,07,14,19.20
2008,06,29,07,15,19.30
2008,06,29,07,16,19.30
2008,06,29,07,17,19.40
2008,06,29,07,18,19.40
2008,06,29,07,19,19.40
2008,06,29,07,20,19.50
2008,06,29,07,21,19.50
2008,06,29,07,22,19.60
2008,06,29,07,23,19.60
2008,06,29,07,24,19.70
2008,06,29,07,25,19.70
2008,06,29,07,26,19.70
2008,06,29,07,27,19.70
2008,06,29,07,28,19.80
2008,06,29,07,29,19.80
2008,06,29,07,30,19.80
2008,06,29,07,31,19.80
2008,06,29,07,32,19.80
2008,06,29,07,33,19.90
2008,06,29,07,34,19.90
2008,06,29,07,35,20.00
2008,06,29,07,36,20.00
2008,06,29,07,37,20.10
2008,06,29,07,38,20.10
2008,06,29,07,39,20.20
2008,06,29,07,40,20.20
2008,06,29,07,41,20.30
2008,06,29,07,42,20.40
2008,06,29,07,43,20.50
2008,06,29,07,44,20.60
2008,06,29,07,45,20.80
2008,06,29,07,46,20.90
2008,06,29,07,47,21.00
2008,06,29,07,48,21.10
2008,06,29,07,49,21.10
2008,06,29,07,50,21.10
2008,06,29,07,51,21.10
2008,06,29,07,52,21.10
2008,06,29,07,53,21.10
2008,06,29,07,54,21.10
2008,06,29,07,55,21.20
2008,06,29,07,56,21.20
2008,06,29,07,57,21.30
2008,06,29,07,58,21.40
2008,06,29,07,59,21.40
2008,06,29,08,00,21.40
2008,06,29,08,01,21.40
2008,06,29,08,02,21.50
2008,06,29,08,03,21.50
2008,06,29,08,04,21.50
2008,06,29,08,05,21.40
2008,06,29,08,06,21.40
2008,06,29,08,07,21.40
2008,06,29,08,08,21.40
2008,06,29,08,09,21.40
2008,06,29,08,10,21.40
2008,06,29,08,11,21.50
2008,06,29,08,12,21.50
2008,06,29,08,13,21.50
2008,06,29,08,14,21.60
2008,06,29,08,15,21.60
2008,06,29,08,16,21.70
2008,06,29,08,17,21.70
2008,06,29,08,18,21.80
2008,06,29,08,19,21.80
2008,06,29,08,20,21.90
2008,06,29,08,21,22.00
2008,06,29,08,22,22.10
2008,06,29,08,23,22.20
2008,06,29,08,24,22.30
2008,06,29,08,25,22.30
2008,06,29,08,26,22.40
2008,06,29,08,27,22.40
2008,06,29,08,28,22.50
2008,06,29,08,29,22.50
2008,06,29,08,30,22.60
2008,06,29,08,31,22.60
2008,06,29,08,32,22.70
2008,06,29,08,33,22.70
2008,06,29,08,34,22.80
2008,06,29,08,35,22.90
2008,06,29,08,36,22.90
2008,06,29,08,37,22.80
2008,06,29,08,38,22.70
2008,06,29,08,39,22.50
2008,06,29,08,40,22.30
2008,06,29,08,41,22.20
2008,06,29,08,42,22.10
2008,06,29,08,43,22.10
2008,06,29,08,44,22.10
2008,06,29,08,45,22.20
2008,06,29,08,46,22.30
2008,06,29,08,47,22.40
2008,06,29,08,48,22.40
2008,06,29,08,49,22.40
2008,06,29,08,50,22.40
2008,06,29,08,51,22.40
2008,06,29,08,52,22.40
2008,06,29,08,53,22.40
2008,06,29,08,54,22.50
2008,06,29,08,55,22.50
2008,06,29,08,56,22.60
2008,06,29,08,57,22.60
2008,06,29,08,58,22.60
2008,06,29,08,59,22.70
2008,06,29,09,00,22.70
2008,06,29,09,01,22.70
2008,06,29,09,02,22.70
2008,06,29,09,03,22.70
2008,06,29,09,04,22.70
2008,06,29,09,05,22.70
2008,06,29,09,06,22.70
2008,06,29,09,07,22.70
2008,06,29,09,08,22.70
2008,06,29,09,09,22.70
2008,06,29,09,10,22.80
2008,06,29,09,11,22.80
2008,06,29,09,12,22.90
2008,06,29,09,13,22.90
2008,06,29,09,14,23.00
2008,06,29,09,15,23.10
2008,06,29,09,16,23.20
2008,06,29,09,17,23.30
2008,06,29,09,18,23.30
2008,06,29,09,19,23.30
2008,06,29,09,20,23.20
2008,06,29,09,21,23.20
2008,06,29,09,22,23.10
2008,06,29,09,23,22.90
2008,06,29,09,24,22.80
2008,06,29,09,25,22.80
2008,06,29,09,26,22.70
2008,06,29,09,27,22.60
2008,06,29,09,28,22.50
2008,06,29,09,29,22.40
2008,06,29,09,30,22.40
2008,06,29,09,31,22.40
2008,06,29,09,32,22.40
2008,06,29,09,33,22.50
2008,06,29,09,34,22.50
2008,06,29,09,35,22.60
2008,06,29,09,36,22.60
2008,06,29,09,37,22.70
2008,06,29,09,38,22.80
2008,06,29,09,39,22.80
2008,06,29,09,40,22.80
2008,06,29,09,41,22.80
2008,06,29,09,42,22.80
2008,06,29,09,43,22.90
2008,06,29,09,44,23.00
2008,06,29,09,45,23.10
2008,06,29,09,46,23.20
2008,06,29,09,47,23.30
2008,06,29,09,48,23.40
2008,06,29,09,49,23.40
2008,06,29,09,50,23.40
2008,06,29,09,51,23.50
2008,06,29,09,52,23.60
2008,06,29,09,53,23.70
2008,06,29,09,54,23.80
2008,06,29,09,55,23.80
2008,06,29,09,56,23.90
2008,06,29,09,57,23.90
2008,06,29,09,58,23.90
2008,06,29,09,59,24.00
2008,06,29,10,00,24.10
2008,06,29,10,01,24.20
2008,06,29,10,02,24.20
2008,06,29,10,03,24.30
2008,06,29,10,04,24.40
2008,06,29,10,05,24.50
2008,06,29,10,06,24.50
2008,06,29,10,07,24.50
2008,06,29,10,08,24.50
2008,06,29,10,09,24.50
2008,06,29,10,10,24.50
2008,06,29,10,11,24.40
2008,06,29,10,12,24.40
2008,06,29,10,13,24.40
2008,06,29,10,14,24.30
2008,06,29,10,15,24.40
2008,06,29,10,16,24.40
2008,06,29,10,17,24.40
2008,06,29,10,18,24.40
2008,06,29,10,19,24.40
2008,06,29,10,20,24.50
2008,06,29,10,21,24.50
2008,06,29,10,22,24.60
2008,06,29,10,23,24.60
2008,06,29,10,24,24.70
2008,06,29,10,25,24.80
2008,06,29,10,26,24.80
2008,06,29,10,27,24.90
2008,06,29,10,28,24.90
2008,06,29,10,29,25.00
2008,06,29,10,30,25.10
2008,06,29,10,31,25.00
2008,06,29,10,32,25.00
2008,06,29,10,33,24.80
2008,06,29,10,34,24.70
2008,06,29,10,35,24.50
2008,06,29,10,36,24.40
2008,06,29,10,37,24.30
2008,06,29,10,38,24.10
2008,06,29,10,39,24.00
2008,06,29,10,40,24.00
2008,06,29,10,41,23.90
2008,06,29,10,42,23.90
2008,06,29,10,43,23.90
2008,06,29,10,44,24.00
2008,06,29,10,45,24.10
2008,06,29,10,46,24.20
2008,06,29,10,47,24.30
2008,06,29,10,48,24.40
2008,06,29,10,49,24.50
2008,06,29,10,50,24.60
2008,06,29,10,51,24.50
2008,06,29,10,52,24.50
2008,06,29,10,53,24.50
2008,06,29,10,54,24.60
2008,06,29,10,55,24.70
2008,06,29,10,56,24.70
2008,06,29,10,57,24.70
2008,06,29,10,58,24.80
2008,06,29,10,59,25.00
2008,06,29,11,00,25.10
2008,06,29,11,01,25.20
2008,06,29,11,02,25.40
2008,06,29,11,03,25.50
2008,06,29,11,04,25.50
2008,06,29,11,05,25.50
2008,06,29,11,06,25.40
2008,06,29,11,07,25.30
2008,06,29,11,08,25.20
2008,06,29,11,09,25.10
2008,06,29,11,10,25.00
2008,06,29,11,11,25.00
2008,06,29,11,12,24.90
2008,06,29,11,13,24.90
2008,06,29,11,14,24.90
2008,06,29,11,15,24.90
2008,06,29,11,16,25.00
2008,06,29,11,17,25.00
2008,06,29,11,18,25.10
2008,06,29,11,19,25.10
2008,06,29,11,20,25.30
2008,06,29,11,21,25.20
2008,06,29,11,22,24.90
2008,06,29,11,23,24.60
2008,06,29,11,24,24.10
2008,06,29,11,25,23.50
2008,06,29,11,26,23.00
2008,06,29,11,27,22.70
2008,06,29,11,28,22.50
2008,06,29,11,29,22.40
2008,06,29,11,30,22.40
2008,06,29,11,31,22.60
2008,06,29,11,32,22.60
2008,06,29,11,33,22.60
2008,06,29,11,34,22.70
2008,06,29,11,35,22.70
2008,06,29,11,36,22.70
2008,06,29,11,37,22.80
2008,06,29,11,38,22.80
2008,06,29,11,39,22.80
2008,06,29,11,40,22.90
2008,06,29,11,41,23.00
2008,06,29,11,42,23.20
2008,06,29,11,43,23.30
2008,06,29,11,44,23.40
2008,06,29,11,45,23.60
2008,06,29,11,46,23.70
2008,06,29,11,47,23.80
2008,06,29,11,48,23.90
2008,06,29,11,49,23.90
2008,06,29,11,50,23.90
2008,06,29,11,51,24.00
2008,06,29,11,52,24.00
2008,06,29,11,53,24.10
2008,06,29,11,54,24.20
2008,06,29,11,55,24.30
2008,06,29,11,56,24.40
2008,06,29,11,57,24.60
2008,06,29,11,58,24.80
2008,06,29,11,59,24.90
2008,06,29,12,00,25.00
2008,06,29,12,01,25.00
2008,06,29,12,02,25.10
2008,06,29,12,03,25.10
2008,06,29,12,04,25.10
2008,06,29,12,05,25.10
2008,06,29,12,06,25.00
2008,06,29,12,07,25.00
2008,06,29,12,08,25.00
2008,06,29,12,09,25.00
2008,06,29,12,10,25.00
2008,06,29,12,11,25.10
2008,06,29,12,12,25.10
2008,06,29,12,13,25.30
2008,06,29,12,14,25.50
2008,06,29,12,15,25.60
2008,06,29,12,16,25.70
2008,06,29,12,17,25.70
2008,06,29,12,18,25.90
2008,06,29,12,19,25.90
2008,06,29,12,20,25.90
2008,06,29,12,21,25.90
2008,06,29,12,22,25.80
2008,06,29,12,23,25.70
2008,06,29,12,24,25.60
2008,06,29,12,25,25.60
2008,06,29,12,26,25.60
2008,06,29,12,27,25.60
2008,06,29,12,28,25.60
2008,06,29,12,29,25.60
2008,06,29,12,30,25.70
2008,06,29,12,31,25.60
2008,06,29,12,32,25.50
2008,06,29,12,33,25.50
2008,06,29,12,34,25.40
2008,06,29,12,35,25.40
2008,06,29,12,36,25.30
2008,06,29,12,37,25.30
2008,06,29,12,38,25.30
2008,06,29,12,39,25.40
2008,06,29,12,40,25.40
2008,06,29,12,41,25.40
2008,06,29,12,42,25.40
2008,06,29,12,43,25.40
2008,06,29,12,44,25.50
2008,06,29,12,45,25.60
2008,06,29,12,46,25.70
2008,06,29,12,47,25.90
2008,06,29,12,48,25.90
2008,06,29,12,49,26.00
2008,06,29,12,50,26.00
2008,06,29,12,51,26.00
2008,06,29,12,52,26.10
2008,06,29,12,53,26.10
2008,06,29,12,54,26.20
2008,06,29,12,55,26.30
2008,06,29,12,56,26.40
2008,06,29,12,57,26.50
2008,06,29,12,58,26.50
2008,06,29,12,59,26.60
2008,06,29,13,00,26.50
2008,06,29,13,01,26.40
2008,06,29,13,02,26.40
2008,06,29,13,03,26.30
2008,06,29,13,04,26.30
2008,06,29,13,05,26.40
2008,06,29,13,06,26.50
2008,06,29,13,07,26.60
2008,06,29,13,08,26.60
2008,06,29,13,09,26.60
2008,06,29,13,10,26.60
2008,06,29,13,11,26.70
2008,06,29,13,12,26.70
2008,06,29,13,13,26.80
2008,06,29,13,14,26.80
2008,06,29,13,15,26.90
2008,06,29,13,16,26.90
2008,06,29,13,17,26.90
2008,06,29,13,18,26.90
2008,06,29,13,19,26.90
2008,06,29,13,20,26.90
2008,06,29,13,21,26.80
2008,06,29,13,22,26.80
2008,06,29,13,23,26.70
2008,06,29,13,24,26.70
2008,06,29,13,25,26.80
2008,06,29,13,26,26.70
2008,06,29,13,27,26.80
2008,06,29,13,28,26.80
2008,06,29,13,29,26.70
2008,06,29,13,30,26.70
2008,06,29,13,31,26.70
2008,06,29,13,32,26.60
2008,06,29,13,33,26.60
2008,06,29,13,34,26.70
2008,06,29,13,35,26.70
2008,06,29,13,36,26.70
2008,06,29,13,37,26.70
2008,06,29,13,38,26.80
2008,06,29,13,39,26.80
2008,06,29,13,40,26.80
2008,06,29,13,41,26.70
2008,06,29,13,42,26.60
2008,06,29,13,43,26.40
2008,06,29,13,44,26.10
2008,06,29,13,45,25.70
2008,06,29,13,46,25.40
2008,06,29,13,47,25.20
2008,06,29,13,48,25.00
2008,06,29,13,49,24.80
2008,06,29,13,50,24.60
2008,06,29,13,51,24.50
2008,06,29,13,52,24.40
2008,06,29,13,53,24.20
2008,06,29,13,54,24.10
2008,06,29,13,55,24.20
2008,06,29,13,56,24.30
2008,06,29,13,57,24.30
2008,06,29,13,58,24.20
2008,06,29,13,59,24.30
2008,06,29,14,00,24.30
2008,06,29,14,01,24.30
2008,06,29,14,02,24.20
2008,06,29,14,03,24.20
2008,06,29,14,04,24.20
2008,06,29,14,05,24.30
2008,06,29,14,06,24.40
2008,06,29,14,07,24.50
2008,06,29,14,08,24.50
2008,06,29,14,09,24.60
2008,06,29,14,10,24.60
2008,06,29,14,11,24.60
2008,06,29,14,12,24.70
2008,06,29,14,13,24.80
2008,06,29,14,14,24.90
2008,06,29,14,15,25.00
2008,06,29,14,16,25.10
2008,06,29,14,17,25.10
2008,06,29,14,18,25.20
2008,06,29,14,19,25.30
2008,06,29,14,20,25.30
2008,06,29,14,21,25.40
2008,06,29,14,22,25.50
2008,06,29,14,23,25.60
2008,06,29,14,24,25.80
2008,06,29,14,25,25.80
2008,06,29,14,26,25.80
2008,06,29,14,27,25.70
2008,06,29,14,28,25.80
2008,06,29,14,29,25.90
2008,06,29,14,30,25.90
2008,06,29,14,31,25.90
2008,06,29,14,32,25.90
2008,06,29,14,33,25.90
2008,06,29,14,34,25.90
2008,06,29,14,35,25.90
2008,06,29,14,36,26.00
2008,06,29,14,37,26.10
2008,06,29,14,38,26.30
2008,06,29,14,39,26.30
2008,06,29,14,40,26.40
2008,06,29,14,41,26.50
2008,06,29,14,42,26.50
2008,06,29,14,43,26.40
2008,06,29,14,44,26.30
2008,06,29,14,45,26.20
2008,06,29,14,46,26.10
2008,06,29,14,47,26.00
2008,06,29,14,48,25.90
2008,06,29,14,49,25.90
2008,06,29,14,50,25.90
2008,06,29,14,51,25.90
2008,06,29,14,52,25.90
2008,06,29,14,53,25.90
2008,06,29,14,54,26.10
2008,06,29,14,55,26.20
2008,06,29,14,56,26.20
2008,06,29,14,57,26.30
2008,06,29,14,58,26.30
2008,06,29,14,59,26.30
2008,06,29,15,00,26.30
2008,06,29,15,01,26.40
2008,06,29,15,02,26.40
2008,06,29,15,03,26.40
2008,06,29,15,04,26.40
2008,06,29,15,05,26.40
2008,06,29,15,06,26.40
2008,06,29,15,07,26.50
2008,06,29,15,08,26.50
2008,06,29,15,09,26.50
2008,06,29,15,10,26.50
2008,06,29,15,11,26.50
2008,06,29,15,12,26.50
2008,06,29,15,13,26.60
2008,06,29,15,14,26.60
2008,06,29,15,15,26.60
2008,06,29,15,16,26.60
2008,06,29,15,17,26.80
2008,06,29,15,18,26.80
2008,06,29,15,19,26.70
2008,06,29,15,20,26.60
2008,06,29,15,21,26.60
2008,06,29,15,22,26.60
2008,06,29,15,23,26.60
2008,06,29,15,24,26.50
2008,06,29,15,25,26.50
2008,06,29,15,26,26.50
2008,06,29,15,27,26.60
2008,06,29,15,28,26.60
2008,06,29,15,29,26.60
2008,06,29,15,30,26.60
2008,06,29,15,31,26.60
2008,06,29,15,32,26.60
2008,06,29,15,33,26.70
2008,06,29,15,34,26.70
2008,06,29,15,35,26.70
2008,06,29,15,36,26.70
2008,06,29,15,37,26.60
2008,06,29,15,38,26.50
2008,06,29,15,39,26.40
2008,06,29,15,40,26.40
2008,06,29,15,41,26.40
2008,06,29,15,42,26.50
2008,06,29,15,43,26.60
2008,06,29,15,44,26.70
2008,06,29,15,45,26.80
2008,06,29,15,46,26.90
2008,06,29,15,47,27.00
2008,06,29,15,48,27.10
2008,06,29,15,49,27.20
2008,06,29,15,50,27.20
2008,06,29,15,51,27.30
2008,06,29,15,52,27.30
2008,06,29,15,53,27.40
2008,06,29,15,54,27.40
2008,06,29,15,55,27.40
2008,06,29,15,56,27.30
2008,06,29,15,57,27.30
2008,06,29,15,58,27.20
2008,06,29,15,59,27.20
2008,06,29,16,00,27.20
2008,06,29,16,01,27.10
2008,06,29,16,02,27.10
2008,06,29,16,03,27.00
2008,06,29,16,04,26.90
2008,06,29,16,05,26.80
2008,06,29,16,06,26.70
2008,06,29,16,07,26.80
2008,06,29,16,08,26.90
2008,06,29,16,09,27.00
2008,06,29,16,10,27.20
2008,06,29,16,11,27.20
2008,06,29,16,12,27.30
2008,06,29,16,13,27.20
2008,06,29,16,14,27.20
2008,06,29,16,15,27.30
2008,06,29,16,16,27.30
2008,06,29,16,17,27.30
2008,06,29,16,18,27.40
2008,06,29,16,19,27.50
2008,06,29,16,20,27.70
2008,06,29,16,21,27.80
2008,06,29,16,22,27.90
2008,06,29,16,23,28.10
2008,06,29,16,24,28.10
2008,06,29,16,25,28.10
2008,06,29,16,26,28.10
2008,06,29,16,27,28.10
2008,06,29,16,28,28.10
2008,06,29,16,29,28.10
2008,06,29,16,30,28.10
2008,06,29,16,31,28.00
2008,06,29,16,32,27.80
2008,06,29,16,33,27.50
2008,06,29,16,34,27.30
2008,06,29,16,35,27.10
2008,06,29,16,36,26.80
2008,06,29,16,37,26.40
2008,06,29,16,38,26.00
2008,06,29,16,39,25.70
2008,06,29,16,40,25.50
2008,06,29,16,41,25.30
2008,06,29,16,42,25.30
2008,06,29,16,43,25.40
2008,06,29,16,44,25.50
2008,06,29,16,45,25.60
2008,06,29,16,46,25.70
2008,06,29,16,47,25.70
2008,06,29,16,48,25.70
2008,06,29,16,49,25.80
2008,06,29,16,50,25.90
2008,06,29,16,51,26.10
2008,06,29,16,52,26.20
2008,06,29,16,53,26.30
2008,06,29,16,54,26.20
2008,06,29,16,55,26.10
2008,06,29,16,56,26.00
2008,06,29,16,57,26.00
2008,06,29,16,58,26.00
2008,06,29,16,59,26.00
2008,06,29,17,00,25.90
2008,06,29,17,01,26.00
2008,06,29,17,02,25.90
2008,06,29,17,03,25.90
2008,06,29,17,04,26.00
2008,06,29,17,05,26.00
2008,06,29,17,06,25.90
2008,06,29,17,07,25.90
2008,06,29,17,08,25.90
2008,06,29,17,09,25.80
2008,06,29,17,10,25.80
2008,06,29,17,11,25.80
2008,06,29,17,12,25.70
2008,06,29,17,13,25.70
2008,06,29,17,14,25.60
2008,06,29,17,15,25.60
2008,06,29,17,16,25.50
2008,06,29,17,17,25.40
2008,06,29,17,18,25.30
2008,06,29,17,19,25.20